Portada
METAR-TAF:

METAR-TAF

Aeroports :

Paraburdoo, Austràlia

latitud: 23-10-17S, longitud: 117-44-44E, altitud: 429 m

Observació

L'informe es va fer fa 25 minuts, a les 10:00 UTC
Vent 8 kt del Sud
Temperatura 33°C
Humitat 10%
Pressió 1015 hPa
Visibilitat 10 km o més

METAR: YPBO 241000Z AUTO 19008KT 9999 // NCD 33/M03 Q1015

Hora: 18:25 (10:25 UTC)


TAF: manca

Observacions i pronòstics meteorològics de més de 4000 aeroports (METAR i TAF).

Les estacions disponibles són els punts grocs i vermells al mapa.

Posi el ratolí al punt desitjat per veure el nom de l'estació.

Feu clic per veure les observacions i els pronòstics meteorològics.

Per canviar el mapa: feu clic els botons verds amb una creu de color negre per apropar; al botó verd amb un guió per allunyar la imatge; o en les fletxes verdes per a mapes adjacents.


METAR-TAF: